EN

Hourly Weather Bolshie Purnevichi

Today, 30 October, Friday

Time Temperature Precipitation Wind Pressure Humidity
00:00 +8°C° 0 mm 1 mps 739 mmHg 93%
01:00 +8°C° 0 mm 1 mps 739 mmHg 93%
02:00 +8°C° 0 mm 1 mps 739 mmHg 93%
03:00 +7°C° 0.2 mm 2 mps 739 mmHg 94%
04:00 +7°C° 0.2 mm 2 mps 739 mmHg 94%
05:00 +8°C° 0.2 mm 2 mps 739 mmHg 95%
06:00 +8°C° 0.3 mm 3 mps 740 mmHg 95%
07:00 +8°C° 0.3 mm 3 mps 740 mmHg 94%
08:00 +8°C° 0.3 mm 3 mps 741 mmHg 94%
09:00 +8°C° 0 mm 3 mps 741 mmHg 89%
10:00 +7°C° 0 mm 4 mps 741 mmHg 84%
11:00 +8°C° 0 mm 4 mps 741 mmHg 79%
12:00 +8°C° 0 mm 4 mps 741 mmHg 77%
13:00 +8°C° 0 mm 4 mps 741 mmHg 75%
14:00 +10°C° 0 mm 4 mps 741 mmHg 73%
15:00 +8°C° 0 mm 4 mps 741 mmHg 76%
16:00 +8°C° 0 mm 3 mps 741 mmHg 80%
17:00 +8°C° 0 mm 3 mps 741 mmHg 83%
18:00 +7°C° 0 mm 3 mps 741 mmHg 83%
19:00 +7°C° 0 mm 3 mps 741 mmHg 83%
20:00 +7°C° 0 mm 3 mps 742 mmHg 83%
21:00 +7°C° 0 mm 3 mps 742 mmHg 83%
22:00 +7°C° 0 mm 3 mps 742 mmHg 84%
23:00 +5°C° 0 mm 3 mps 742 mmHg 84%

Tomorrow, 31 October, Saturday

Time Temperature Precipitation Wind Pressure Humidity
00:00 +6°C° 0 mm 2 mps 742 mmHg 85%
01:00 +6°C° 0 mm 2 mps 742 mmHg 86%
02:00 +6°C° 0 mm 2 mps 742 mmHg 87%
03:00 +6°C° 0.1 mm 2 mps 742 mmHg 88%
04:00 +6°C° 0.1 mm 2 mps 742 mmHg 89%
05:00 +6°C° 0.1 mm 2 mps 743 mmHg 90%
06:00 +6°C° 0.1 mm 2 mps 743 mmHg 91%
07:00 +6°C° 0.1 mm 2 mps 743 mmHg 92%
08:00 +7°C° 0.1 mm 1 mps 744 mmHg 94%
09:00 +7°C° 0 mm 2 mps 744 mmHg 90%
10:00 +8°C° 0 mm 2 mps 745 mmHg 87%
11:00 +8°C° 0 mm 2 mps 745 mmHg 83%
12:00 +9°C° 0 mm 2 mps 745 mmHg 80%
13:00 +9°C° 0 mm 2 mps 745 mmHg 77%
14:00 +9°C° 0 mm 2 mps 746 mmHg 74%
15:00 +8°C° 0 mm 2 mps 746 mmHg 79%
16:00 +8°C° 0 mm 2 mps 746 mmHg 84%
17:00 +7°C° 0 mm 2 mps 746 mmHg 89%
18:00 +6°C° 0 mm 2 mps 747 mmHg 90%
19:00 +6°C° 0 mm 2 mps 747 mmHg 92%
20:00 +6°C° 0 mm 2 mps 747 mmHg 94%
21:00 +5°C° 0 mm 2 mps 747 mmHg 94%
22:00 +5°C° 0 mm 2 mps 747 mmHg 94%
23:00 +5°C° 0 mm 2 mps 747 mmHg 95%

Day after tomorrow, 1 November, Sunday

Time Temperature Precipitation Wind Pressure Humidity
00:00 +5°C° 0 mm 2 mps 747 mmHg 95%
01:00 +5°C° 0 mm 2 mps 748 mmHg 95%
02:00 +5°C° 0 mm 2 mps 748 mmHg 95%
03:00 +5°C° 0 mm 2 mps 747 mmHg 95%
04:00 +5°C° 0 mm 2 mps 747 mmHg 95%
05:00 +5°C° 0 mm 2 mps 747 mmHg 95%
06:00 +6°C° 0 mm 1 mps 747 mmHg 96%
07:00 +6°C° 0 mm 1 mps 747 mmHg 96%
08:00 +6°C° 0 mm 1 mps 747 mmHg 96%
09:00 +7°C° 0 mm 1 mps 747 mmHg 91%
10:00 +8°C° 0 mm 1 mps 747 mmHg 86%
11:00 +10°C° 0 mm 1 mps 747 mmHg 82%
12:00 +10°C° 0 mm 1 mps 746 mmHg 79%
13:00 +11°C° 0 mm 1 mps 746 mmHg 77%
14:00 +11°C° 0 mm 1 mps 746 mmHg 75%
15:00 +10°C° 0 mm 1 mps 745 mmHg 77%
16:00 +10°C° 0 mm 1 mps 745 mmHg 80%
17:00 +9°C° 0 mm 1 mps 745 mmHg 83%
18:00 +9°C° 0 mm 1 mps 745 mmHg 84%
19:00 +7°C° 0 mm 2 mps 745 mmHg 86%
20:00 +7°C° 0 mm 2 mps 745 mmHg 87%
21:00 +6°C° 0 mm 2 mps 744 mmHg 90%
22:00 +6°C° 0 mm 2 mps 744 mmHg 92%
23:00 +5°C° 0 mm 2 mps 744 mmHg 94%

2 November, Monday

Time Temperature Precipitation Wind Pressure Humidity
00:00 +5°C° 0 mm 2 mps 744 mmHg 94%
01:00 +5°C° 0 mm 2 mps 743 mmHg 94%
02:00 +3°C° 0 mm 3 mps 743 mmHg 94%
03:00 +3°C° 0 mm 3 mps 743 mmHg 95%
04:00 +3°C° 0 mm 3 mps 742 mmHg 95%
05:00 +3°C° 0 mm 3 mps 742 mmHg 95%
06:00 +3°C° 0 mm 3 mps 742 mmHg 95%
07:00 +3°C° 0 mm 3 mps 742 mmHg 95%
08:00 +3°C° 0 mm 4 mps 742 mmHg 94%
09:00 +4°C° 0 mm 4 mps 742 mmHg 88%
10:00 +6°C° 0 mm 5 mps 742 mmHg 82%
11:00 +7°C° 0 mm 5 mps 741 mmHg 76%
12:00 +7°C° 0.1 mm 5 mps 741 mmHg 78%
13:00 +7°C° 0.1 mm 5 mps 741 mmHg 79%
14:00 +7°C° 0.1 mm 5 mps 741 mmHg 81%
15:00 +7°C° 0.2 mm 5 mps 740 mmHg 84%
16:00 +7°C° 0.2 mm 5 mps 740 mmHg 86%
17:00 +7°C° 0.2 mm 5 mps 740 mmHg 89%
18:00 +7°C° 0.1 mm 5 mps 740 mmHg 91%
19:00 +7°C° 0.1 mm 5 mps 740 mmHg 92%
20:00 +7°C° 0.1 mm 5 mps 740 mmHg 94%
21:00 +8°C° 0.1 mm 5 mps 740 mmHg 95%
22:00 +8°C° 0.1 mm 5 mps 740 mmHg 96%
23:00 +8°C° 0.1 mm 4 mps 740 mmHg 97%

3 November, Tuesday

Time Temperature Precipitation Wind Pressure Humidity
00:00 +8°C° 0 mm 4 mps 740 mmHg 97%
01:00 +10°C° 0 mm 4 mps 740 mmHg 97%
02:00 +10°C° 0 mm 4 mps 740 mmHg 97%
03:00 +10°C° 0 mm 4 mps 740 mmHg 97%
04:00 +10°C° 0 mm 4 mps 740 mmHg 97%
05:00 +10°C° 0 mm 4 mps 740 mmHg 97%
06:00 +11°C° 0 mm 4 mps 740 mmHg 97%
07:00 +11°C° 0 mm 4 mps 741 mmHg 96%
08:00 +11°C° 0 mm 4 mps 741 mmHg 96%
09:00 +12°C° 0 mm 4 mps 741 mmHg 94%
10:00 +12°C° 0 mm 4 mps 741 mmHg 92%
11:00 +13°C° 0 mm 5 mps 742 mmHg 90%
12:00 +13°C° 0 mm 4 mps 742 mmHg 89%
13:00 +14°C° 0 mm 4 mps 742 mmHg 89%
14:00 +14°C° 0 mm 4 mps 743 mmHg 88%
15:00 +13°C° 0 mm 3 mps 743 mmHg 87%
16:00 +13°C° 0 mm 3 mps 744 mmHg 86%
17:00 +12°C° 0 mm 3 mps 744 mmHg 85%
18:00 +11°C° 0 mm 3 mps 745 mmHg 85%
19:00 +10°C° 0 mm 2 mps 745 mmHg 84%
20:00 +10°C° 0 mm 2 mps 746 mmHg 83%
21:00 +9°C° 0 mm 2 mps 746 mmHg 83%
22:00 +8°C° 0 mm 2 mps 746 mmHg 82%
23:00 +9°C° 0 mm 1 mps 747 mmHg 82%

4 November, Wednesday

Time Temperature Precipitation Wind Pressure Humidity
00:00 +9°C° 0 mm 1 mps 747 mmHg 82%
01:00 +8°C° 0 mm 1 mps 747 mmHg 83%
02:00 +8°C° 0 mm 1 mps 747 mmHg 83%
03:00 +7°C° 0 mm 2 mps 747 mmHg 82%
04:00 +8°C° 0 mm 2 mps 746 mmHg 81%
05:00 +8°C° 0 mm 3 mps 746 mmHg 80%
06:00 +8°C° 0.1 mm 3 mps 746 mmHg 81%
07:00 +8°C° 0.1 mm 3 mps 746 mmHg 82%
08:00 +8°C° 0.1 mm 3 mps 746 mmHg 84%
09:00 +9°C° 0.1 mm 3 mps 746 mmHg 86%
10:00 +10°C° 0.1 mm 3 mps 745 mmHg 89%
11:00 +10°C° 0.1 mm 4 mps 745 mmHg 91%
12:00 +11°C° 0.1 mm 3 mps 745 mmHg 91%
13:00 +12°C° 0.1 mm 3 mps 745 mmHg 91%
14:00 +12°C° 0.1 mm 3 mps 744 mmHg 91%
15:00 +12°C° 0.1 mm 3 mps 744 mmHg 92%
16:00 +12°C° 0.1 mm 3 mps 744 mmHg 93%
17:00 +13°C° 0.1 mm 2 mps 744 mmHg 94%
18:00 +11°C° 0.2 mm 3 mps 745 mmHg 94%
19:00 +11°C° 0.2 mm 4 mps 745 mmHg 94%
20:00 +10°C° 0.2 mm 4 mps 746 mmHg 93%
21:00 +10°C° 0 mm 4 mps 746 mmHg 92%
22:00 +8°C° 0 mm 4 mps 747 mmHg 91%
23:00 +8°C° 0 mm 4 mps 747 mmHg 90%
Show more